Location: Eaton Estates
(41.3089°N, 82.0057°W)
Time: 11:15:13
(UTC+00:00)

BlueWalker 3 - Pass Details

Date: 13 December 2023
Orbit: 486 x 500 km, 53.2° (Epoch: 24 February)

Event Time Altitude Azimuth Distance (km) Brightness Sun altitude
Rises 22:55:41 0° 179° (S) 2,586 5.8 -10.4°
Reaches altitude 10° 22:59:10 10° 146° (SE) 1,713 4.5 -11.0°
Maximum altitude 23:00:32 12° 125° (SE) 1,618 4.2 -11.2°
Enters shadow 23:01:39 11° 108° (ESE) 1,688 4.1 -11.4°
